Overview Statistics Trail Chart Weather Telemetry Raw packets
 

This is the latest recevied weather packets stored in our database for station/object KD4EED. If no packets are shown the sender has not sent any weather packets the latest 10 day(s).

<< 77 78 79 80 81 82 83 >>
Time Temp. Humidity Pressure Rain* Wind** Luminosity Snow
1788121252 31.11° C 49% 1009.8 hPa - - 640 W/m² -
1788120951 30.56° C 50% 1009.6 hPa - - 639 W/m² -
1788120646 31.11° C 50% 1009.7 hPa - - 638 W/m² -
1788120342 31.11° C 50% 1009.6 hPa - - 638 W/m² -
1788120040 30.56° C 51% 1009.6 hPa - - 636 W/m² -
1788119737 30.56° C 51% 1009.5 hPa - - 634 W/m² -
1788119434 30.56° C 50% 1009.7 hPa - - 634 W/m² -
1788119133 30.56° C 49% 1009.8 hPa - - 631 W/m² -
1788118833 30.56° C 51% 1009.8 hPa - - 625 W/m² -
1788118533 30.56° C 51% 1009.6 hPa - - 617 W/m² -
1788118228 30° C 52% 1009.8 hPa - - 614 W/m² -
1788117923 30.56° C 52% 1010 hPa - - 604 W/m² -
1788117618 30.56° C 52% 1010 hPa - - 599 W/m² -
1788117314 30.56° C 53% 1010 hPa - - 591 W/m² -
1788117009 30° C 52% 1010.1 hPa - - 587 W/m² -
1788116704 30.56° C 53% 1010.1 hPa - - 582 W/m² -
1788116403 30.56° C 52% 1010 hPa - - 577 W/m² -
1788116098 30.56° C 51% 1009.7 hPa - - 574 W/m² -
1788115794 30.56° C 51% 1009.9 hPa - - 569 W/m² -
1788115493 30.56° C 49% 1010.1 hPa - - 567 W/m² -
1788115188 31.11° C 48% 1009.9 hPa - - 565 W/m² -
1788114888 31.11° C 49% 1009.9 hPa - - 559 W/m² -
1788114583 31.11° C 48% 1009.8 hPa - - 557 W/m² -
1788114279 31.67° C 49% 1009.9 hPa - - 550 W/m² -
1788113975 31.11° C 51% 1009.8 hPa - - 548 W/m² -

* Rain since midnight (hover to see other rain measurements)
** Current wind speed in m/s (hover to see current wind gust speed)